SCP
0 0 0 0 0 0 0 0 0 0 0 0 0 0 0 0 0 0 0 0 0 0 0 0 0 0 0 0 0 0 0 0 0 0 0 0 0 0 0 0 0 0 0 0 0 0 0 0 0
0 0 0 0 0 0 0 0 0 0 0 0 0 0 0 0 0 0 0 0 0 0 0 0 0 0 0 0 0 0 0 0 0 0 0 0 0 0 0 0 0 0 0 0 0 0 0 0 0
0 0 0 0 0 0 0 0 0 0 0 0 0 0 0 0 0 0 0 0 0 0 0 0 1 1 0 0 0 0 0 0 0 0 0 0 0 0 0 0 0 0 0 0 0 0 0 0 0
0 0 0 0 0 0 0 0 0 0 0 0 0 0 0 0 0 0 0 0 0 0 0 0 0 1 0 0 0 0 0 0 0 0 0 0 0 0 0 0 0 0 0 0 0 0 0 0 0
0 0 0 0 0 0 0 0 0 0 0 0 0 0 0 0 0 0 0 0 0 0 0 0 0 0 0 0 0 0 0 0 0 0 0 0 0 0 0 0 0 0 0 0 0 0 0 0 0
0 0 0 0 0 0 0 0 0 0 0 0 0 0 0 0 0 0 0 0 0 0 0 0 0 0 0 0 0 0 0 0 0 0 0 0 0 0 0 0 0 0 0 0 0 0 0 0 0
0 0 0 0 0 0 0 0 0 0 0 0 0 0 0 0 0 0 0 0 0 0 0 0 0 0 0 0 0 0 0 0 0 0 0 0 0 0 0 0 0 0 0 0 0 0 0 0 0
0 0 0 0 0 0 0 0 0 0 0 0 0 0 0 0 0 0 0 0 0 0 0 0 0 0 0 0 0 0 0 0 0 0 0 0 0 0 0 0 0 0 0 0 0 0 0 0 0
0 0 0 0 0 0 0 0 0 0 0 0 0 0 0 0 0 0 0 0 0 0 0 0 0 0 0 0 0 0 0 0 0 0 0 0 0 0 0 0 0 0 0 0 0 0 0 0 0
0 0 0 0 0 0 0 0 0 0 0 0 0 0 0 0 0 0 0 0 0 0 0 0 0 0 0 0 0 0 0 0 0 0 0 0 0 0 0 0 0 0 0 0 0 0 0 0 0
0 0 0 0 0 0 0 0 0 0 0 0 0 0 0 0 0 0 0 0 0 0 0 0 0 0 0 0 0 0 0 0 0 0 0 0 0 0 0 0 0 0 0 0 0 0 0 0 0
0 0 0 0 0 0 0 0 0 0 0 0 0 0 0 0 0 0 0 0 0 0 0 0 0 0 0 0 0 0 0 0 0 0 0 0 0 0 0 0 0 0 0 0 0 0 0 0 0
0 0 0 0 0 0 0 0 0 0 0 0 0 0 0 0 0 0 0 0 0 0 0 0 0 0 0 0 0 0 0 0 0 0 0 0 0 0 0 0 0 0 0 0 0 0 0 0 0
0 0 0 0 0 0 0 0 0 0 0 0 0 0 0 0 0 0 0 0 0 0 0 0 0 0 0 0 0 0 0 0 0 0 0 0 0 0 0 0 0 0 0 0 0 0 0 0 0
0 0 0 0 0 0 0 0 0 0 0 0 0 0 0 0 0 0 0 0 0 0 0 0 0 0 0 0 0 0 0 0 0 0 0 0 0 0 0 0 0 0 0 0 0 0 0 0 0
0 0 0 0 0 0 0 0 0 0 0 0 0 0 0 0 0 0 0 0 0 0 0 0 0 0 0 0 0 0 0 0 0 0 0 0 0 0 0 0 0 0 0 0 0 0 0 0 0
0 0 0 0 0 0 0 0 0 0 0 0 0 0 0 0 0 0 0 0 0 0 0 0 0 0 0 0 0 0 0 0 0 0 0 0 0 0 0 0 0 0 0 0 0 0 0 0 0
0 0 0 0 0 0 0 0 0 0 0 0 0 0 0 0 0 0 0 0 0 0 0 0 0 0 0 0 0 0 0 0 0 0 0 0 0 0 0 0 0 0 0 0 0 0 0 0 0
0 0 0 0 0 0 0 0 0 0 0 0 0 0 0 0 0 0 0 0 0 0 0 0 0 0 0 0 0 0 0 0 0 0 0 0 0 0 0 0 0 0 0 0 0 0 0 0 0
0 0 0 0 0 0 0 0 0 0 0 0 0 0 0 0 0 0 0 0 0 0 0 0 0 0 0 0 0 0 0 0 0 0 0 0 0 0 0 0 0 0 0 0 0 0 0 0 0
0 0 0 0 0 0 0 0 0 0 0 0 0 0 0 0 0 0 0 0 0 0 0 0 0 0 0 0 0 0 0 0 0 0 0 0 0 0 0 0 0 0 0 0 0 0 0 0 0
0 0 0 0 0 0 0 0 0 0 0 0 0 0 0 0 0 0 0 0 0 0 0 0 0 0 0 0 0 0 0 0 0 0 0 0 0 0 0 0 0 0 0 0 0 0 0 0 0
0 0 0 0 0 0 0 0 0 0 0 0 0 0 0 0 0 0 0 0 0 0 0 0 0 0 0 0 0 0 0 0 0 0 0 0 0 0 0 0 0 0 0 0 0 0 0 0 0
0 0 0 0 0 0 0 0 0 -0 0 0 0 0 0 0 0 0 0 0 0 0 0 0 0 0 0 0 0 0 0 0 0 0 0 0 0 0 0 0 0 0 0 0 0 0 0 0 0
0 0 0 0 0 0 0 0 0 0 0 0 0 0 0 0 0 0 0 0 0 0 0 0 0 0 0 0 0 0 0 0 0 0 0 0 0 0 0 0 0 0 0 0 0 0 0 0 0
0 0 0 0 0 0 0 0 0 0 0 0 0 0 0 0 0 0 0 0 0 0 0 0 0 0 0 0 0 0 0 0 0 0 0 0 0 0 0 0 0 0 0 0 0 0 0 0 0
0 0 0 0 0 0 0 0 0 0 0 0 0 0 0 0 0 0 0 0 0 0 0 0 0 0 0 0 0 0 0 0 0 0 0 0 0 0 0 0 0 0 0 0 0 0 0 0 0
0 0 0 0 0 0 0 0 0 0 0 0 0 0 0 0 0 0 0 0 0 0 0 0 0 0 0 0 0 0 0 0 0 0 0 0 0 0 0 0 0 0 0 0 0 0 0 0 0
0 0 0 0 0 0 0 0 0 0 0 0 0 0 0 0 0 0 0 0 0 0 0 0 0 0 0 0 0 0 0 0 0 0 0 0 0 0 0 0 0 0 0 0 0 0 0 0 0
0 0 0 0 0 0 0 0 0 0 0 0 0 0 0 0 0 0 0 0 0 0 0 0 0 0 0 0 0 0 0 0 0 0 0 0 0 0 0 0 0 0 0 0 0 0 0 0 0
Wind_Speed
1 2 3 4 6 7 9 6 4 5 4 2 1 3 3 2 1 4 6 4 6 7 8 9 9 9 10 10 10 9 9 9 9 9 8 8 8 8 8 8 7 7 6 6 6 6 6 7 7
2 3 5 5 7 9 7 7 8 6 4 4 3 3 3 2 3 6 5 5 6 7 8 8 9 9 10 10 10 10 9 9 8 8 8 7 7 7 7 7 7 7 6 5 5 5 6 6 6
3 3 5 5 8 9 5 4 5 4 4 4 4 1 0 3 5 5 5 6 7 8 8 9 9 9 9 9 10 9 9 8 8 7 7 7 7 7 6 6 6 6 6 6 5 5 5 6 6
4 5 5 8 12 8 4 3 4 6 5 4 4 5 3 4 2 4 6 7 8 8 8 9 8 9 9 9 9 9 9 8 8 7 7 6 6 6 7 6 6 6 6 5 5 5 5 5 5
4 5 7 9 11 6 5 3 4 6 6 5 5 4 5 4 3 6 7 7 7 7 7 8 8 9 9 8 8 8 8 8 7 7 7 7 6 6 6 7 6 6 5 5 4 4 4 4 4
5 5 8 11 11 6 5 5 6 7 5 4 5 5 5 5 6 7 7 6 7 7 6 7 8 8 8 8 8 8 7 7 7 6 7 6 6 6 6 6 6 6 5 5 4 4 3 3 3
6 6 7 8 7 7 5 5 8 7 7 5 4 6 6 7 6 6 7 6 6 6 6 5 6 7 8 8 7 7 7 7 6 6 6 6 6 5 5 5 5 5 4 4 4 3 3 3 3
4 5 7 7 8 6 4 4 3 5 5 3 4 6 6 8 7 6 6 6 6 5 4 4 5 5 5 6 7 7 6 6 6 6 5 5 5 5 4 4 4 4 4 3 3 3 2 2 2
5 7 9 7 6 4 4 5 3 1 3 4 3 0 3 9 8 7 6 6 5 4 3 3 4 4 4 4 5 5 6 5 4 5 5 3 2 2 2 3 3 3 2 2 2 2 1 1 2
8 9 8 3 3 2 4 4 3 4 6 6 5 4 5 8 9 8 8 7 6 5 4 3 3 3 3 3 4 3 3 3 2 2 2 2 1 1 1 3 2 2 1 2 1 1 2 3 2
8 9 5 4 3 2 3 4 4 6 8 8 8 8 8 9 9 9 8 7 6 5 4 3 3 3 3 2 2 2 2 2 2 2 1 1 1 1 0 1 1 2 2 2 2 3 2 2 2
7 7 6 4 3 4 5 4 6 10 7 3 4 6 9 11 11 10 8 7 6 6 5 4 4 3 3 2 2 2 2 2 1 2 1 1 0 0 0 1 1 1 1 2 2 2 3 3 4
11 6 5 6 6 6 6 9 8 10 9 6 5 7 10 11 10 9 7 7 6 6 6 5 4 4 4 3 2 3 2 2 2 1 1 1 1 1 1 1 1 2 2 2 3 3 3 4 4
6 7 7 7 8 6 9 10 9 11 8 8 8 9 10 11 10 9 8 8 8 7 6 5 5 5 4 4 3 2 2 2 2 2 2 2 2 2 2 2 2 2 2 3 3 4 4 4 4
3 6 8 9 9 6 6 12 14 11 7 9 10 10 9 10 10 10 9 8 8 7 6 6 5 5 5 5 4 2 3 3 2 2 3 2 2 2 2 2 3 3 3 3 4 4 4 4 4
5 7 8 6 7 6 8 12 7 6 9 11 10 10 9 10 10 10 9 8 8 7 6 6 5 6 6 5 4 3 3 3 3 2 3 3 3 3 3 3 3 3 3 3 4 4 4 4 5
8 9 9 5 6 6 10 10 4 4 8 10 11 10 10 10 10 9 9 8 8 8 7 7 6 6 6 5 4 3 3 3 3 3 3 3 3 4 3 3 3 4 3 3 4 4 4 5 5
8 9 8 7 4 7 11 13 9 6 9 11 11 11 10 10 10 9 8 8 7 7 7 7 7 6 5 4 3 3 3 3 3 3 3 4 3 4 4 3 4 4 4 4 4 5 5 5 5
6 8 9 5 3 7 12 14 13 10 11 12 11 10 10 10 9 7 7 7 7 7 8 8 7 6 5 4 4 4 4 4 3 3 4 5 4 4 4 4 4 4 5 5 6 5 6 5 4
9 10 9 5 2 6 10 15 14 12 12 11 11 11 10 9 8 7 7 7 7 8 8 7 7 7 6 5 4 3 4 3 3 3 4 5 5 5 4 5 5 5 5 6 7 6 5 5 4
12 13 10 7 3 5 8 12 10 8 8 8 9 9 8 8 8 7 7 7 7 7 7 6 7 6 6 5 4 3 3 4 4 4 4 5 5 5 5 6 6 6 6 6 7 7 8 6 5
11 9 8 7 6 5 4 8 5 5 7 7 7 7 7 6 6 6 6 6 7 7 6 6 6 6 6 6 5 6 5 5 5 4 4 5 5 6 6 6 6 6 6 7 7 7 7 7 6
5 3 6 7 8 7 7 8 7 5 7 7 5 5 4 4 5 6 6 6 6 5 5 5 5 6 6 6 6 6 6 5 4 4 5 5 5 5 6 6 6 7 6 8 8 8 8 7 8
5 4 3 4 5 9 10 11 8 6 6 5 4 3 2 2 3 4 4 4 4 4 4 5 5 5 5 6 6 7 7 6 6 6 5 5 4 4 6 6 7 7 7 8 8 8 9 8 9
8 7 5 6 7 8 5 9 8 2 3 4 3 2 1 1 2 2 3 4 4 4 4 4 5 5 5 5 5 6 7 7 7 6 5 5 5 5 6 6 7 7 7 8 8 8 9 9 10
12 10 7 7 7 4 6 10 4 0 2 3 3 1 1 1 1 1 2 3 3 3 4 4 4 4 4 4 4 5 6 5 5 6 6 6 5 6 6 7 7 8 8 8 8 7 8 8 9
10 10 5 2 1 4 7 6 4 3 3 3 2 0 1 1 1 1 1 1 2 3 3 4 4 4 4 4 4 4 5 4 5 6 6 5 6 6 7 7 8 8 8 9 8 7 9 9 9
5 6 6 6 6 8 7 7 5 6 4 3 1 1 1 2 1 1 1 1 1 2 3 3 3 4 3 3 3 3 4 4 5 5 6 6 7 7 7 8 8 8 9 9 9 8 8 9 9
7 7 6 5 4 6 6 3 1 3 4 2 0 1 1 1 1 1 1 1 1 1 2 2 2 2 3 3 3 3 3 4 5 5 6 6 6 7 7 8 8 8 9 9 9 9 9 9 9
6 7 7 5 6 5 5 1 3 2 2 1 1 2 2 2 2 2 2 2 1 1 1 2 2 2 2 3 3 3 4 4 5 5 6 6 7 7 7 7 8 8 9 9 9 9 9 9 9
Wind_Direction
286 243 217 211 214 225 233 215 204 175 181 168 175 208 204 193 246 77 85 108 118 130 131 127 113 116 116 113 111 109 106 105 104 106 107 109 112 117 122 122 121 121 123 121 120 119 128 130 129
243 208 205 214 230 223 220 208 205 191 136 134 155 191 183 130 55 91 117 112 125 127 129 120 113 112 113 112 110 109 107 105 103 105 107 108 111 115 119 120 118 116 117 117 115 112 115 119 125
190 228 215 212 227 233 215 179 197 165 163 184 159 167 166 108 110 109 106 128 132 127 127 112 108 111 111 110 110 109 107 104 102 103 106 108 109 109 112 116 116 114 111 109 108 110 114 116 119
194 193 216 232 228 233 251 135 144 162 168 187 182 148 120 71 82 102 121 137 132 127 126 114 107 111 111 110 110 108 107 104 102 100 104 106 107 107 107 105 105 105 108 109 108 109 113 114 120
215 207 210 226 232 226 228 219 193 192 175 172 192 161 129 99 97 123 134 136 132 121 119 119 109 109 109 108 109 109 108 107 104 101 101 104 107 104 105 103 101 101 105 111 115 116 115 121 126
193 213 222 227 223 218 220 213 211 213 193 178 192 168 126 119 129 131 134 136 129 121 118 122 113 107 105 105 106 106 105 105 105 104 102 100 99 103 106 104 102 99 100 104 112 120 122 127 138
211 215 236 238 231 222 210 198 216 213 203 189 194 173 140 142 132 139 137 133 126 121 119 122 131 125 114 106 103 102 100 99 100 101 100 96 93 94 103 106 105 105 103 101 102 111 124 141 147
234 226 230 229 229 222 171 184 217 224 206 138 202 196 161 151 143 146 141 137 130 125 124 124 129 135 136 128 109 102 97 92 90 89 88 93 103 104 99 110 106 107 106 107 110 109 111 147 163
216 230 229 220 222 203 165 188 162 236 188 180 207 312 94 137 152 158 160 160 152 142 139 141 140 141 141 134 125 123 110 98 105 104 94 108 131 130 124 95 84 103 110 114 119 120 121 170 178
208 229 232 224 224 195 179 208 185 197 203 202 192 167 148 156 172 178 184 185 183 174 163 160 163 155 157 148 146 145 138 134 136 125 121 119 108 99 103 107 100 118 129 149 148 165 184 216 211
210 235 234 220 228 245 217 219 217 226 223 218 209 186 172 181 189 196 199 197 196 186 177 178 175 175 174 170 160 156 157 155 157 138 142 151 127 119 158 151 160 189 201 211 197 212 225 233 236
219 232 237 232 214 233 239 235 230 233 241 252 235 197 189 199 204 208 208 205 199 196 193 190 187 187 187 189 179 179 176 175 170 171 183 203 209 241 290 249 248 239 236 239 238 242 242 246 242
223 227 230 240 240 250 252 244 253 246 242 248 230 207 207 209 212 214 214 211 207 206 202 199 199 198 193 193 199 188 190 192 186 187 194 217 234 240 246 262 258 257 265 255 251 248 247 249 252
224 233 241 244 239 239 244 251 244 244 232 224 216 213 214 215 214 213 213 212 209 208 205 201 203 203 199 201 203 201 196 196 203 201 206 216 234 242 250 259 270 270 267 268 263 258 253 250 252
214 239 247 237 231 228 238 248 232 235 223 220 217 215 216 219 216 216 213 213 210 207 203 200 202 205 206 207 208 212 204 205 206 208 217 222 235 244 248 255 260 269 271 266 264 264 261 259 256
205 228 236 206 209 203 220 249 224 217 218 225 223 221 220 220 219 218 214 214 211 207 204 199 199 205 207 208 208 212 216 209 211 214 219 223 234 244 249 253 260 268 270 271 265 265 265 262 261
207 227 230 210 200 202 223 254 232 222 226 232 229 226 223 219 219 218 212 211 210 208 206 202 202 206 208 207 208 217 225 221 221 222 225 229 236 241 247 253 260 262 262 265 269 268 268 270 269
212 222 230 226 188 217 235 251 253 240 242 243 237 229 224 223 220 215 212 211 211 210 208 204 202 205 204 202 204 212 224 223 224 228 231 238 240 244 251 252 258 261 258 258 261 266 268 269 272
239 231 239 241 231 242 248 259 263 255 243 241 236 229 226 227 223 213 209 209 209 208 207 203 204 202 201 200 206 212 219 220 223 227 234 239 243 246 249 255 257 257 256 258 262 264 267 271 277
229 235 243 247 230 255 269 270 267 256 241 238 238 235 229 226 219 212 210 207 210 208 207 206 206 204 206 209 212 223 232 230 232 232 234 237 241 245 247 250 254 255 257 256 257 259 261 267 262
227 233 238 244 268 249 280 271 243 230 227 230 236 237 231 223 218 209 209 211 211 208 206 207 207 208 209 207 206 210 225 225 225 229 234 239 245 245 247 251 254 255 255 254 254 254 254 260 260
230 228 231 234 245 250 252 277 241 213 219 224 225 221 224 221 221 217 213 213 213 210 205 210 207 209 209 205 210 217 229 230 235 238 242 248 249 251 249 250 254 256 256 255 254 254 256 253 255
219 194 214 230 239 257 229 253 257 208 226 220 211 210 214 220 224 224 219 216 214 206 203 208 207 209 211 211 216 224 237 238 239 241 246 253 251 250 251 252 253 254 256 257 257 256 253 251 252
159 149 166 204 223 243 226 229 254 207 220 205 198 205 205 218 229 233 225 214 209 199 199 205 206 210 211 214 218 225 240 241 241 243 248 253 253 251 251 254 254 254 254 255 256 255 253 252 252
186 180 185 196 209 233 182 225 249 222 223 221 216 207 184 241 233 230 224 213 206 201 203 210 209 213 214 216 223 232 243 243 243 246 248 255 257 257 258 260 259 258 256 256 256 255 254 253 252
197 206 209 216 222 205 190 232 239 151 233 224 227 244 265 290 279 253 236 215 208 209 213 216 220 224 226 228 232 242 247 246 247 249 253 255 258 263 266 265 264 264 263 260 256 256 255 253 253
187 210 234 249 282 248 218 233 249 194 187 183 189 214 300 329 335 305 261 212 209 211 220 225 228 232 232 240 242 248 249 250 253 255 257 259 261 265 265 267 267 265 264 262 261 255 255 255 253
225 183 182 205 215 234 228 229 210 181 185 171 161 13 1 350 347 346 303 298 245 225 232 239 237 234 239 243 247 249 253 256 258 261 263 264 266 268 268 268 268 266 264 262 261 262 258 256 256
181 190 202 201 233 239 235 210 97 205 179 179 194 358 2 359 357 15 351 338 306 255 245 255 260 250 248 254 256 259 267 267 266 267 267 270 270 272 272 271 271 270 267 264 261 261 263 260 259
218 203 194 206 209 228 251 228 76 134 145 173 342 354 357 3 6 17 9 5 347 309 300 288 286 270 263 263 264 268 275 277 274 274 275 276 276 276 276 276 274 274 274 270 263 262 263 262 262